Home > Weather > Chhindwara > Past weeks

Flag for India Past Weather in Chhindwara, Madhya Pradesh, India — Yesterday and Last 2 Weeks

Now
79 °F

More clouds than sun.


Feels Like: 83 °F
Forecast: 72 / 81 °F
Wind: 2 mph from Southwest

Location: Nagpur Sonegaon

Current Time: Jul 27, 2016 at 7:22:47 AM

Latest Report: Jul 27, 2016 at 6:30 AM


Visibility: 1 mi

Pressure: 29.74 "Hg (27.50 "Hg at 687m altitude)

Humidity: 94%

Dew Point: 77 °F

Location of ChhindwaraLocation

Past Weather in Chhindwara — Graph

°F

Chhindwara Temperature Yesterday

Maximum temperature yesterday: 88 °F (at 2:30 PM)
Minimum temperature yesterday: 79 °F (at 12:00 AM)
Average temperature yesterday: 82 °F

High & Low Weather Summary for the Past Weeks

 TemperatureHumidityPressure
High102 °F (Jul 15, 11:00 AM)100% (Jul 12, 5:00 PM)29.83 "Hg (Jul 12, 5:00 PM)
Low73 °F (Jul 12, 5:00 PM)40% (Jul 26, 1:00 PM)29.50 "Hg (Jul 12, 5:30 AM)
Average82 °F82%29.68 "Hg
* Reported Jul 12 5:30 AM — Jul 27 6:00 AM, Chhindwara, Weather by CustomWeather, © 2016

Note: Actual official high and low records may vary slightly from our data, if they occured in-between our weather recording intervals... More about our weather records

Advertising

Chhindwara Weather History for the Previous 24 Hours

Scroll right to see more
 ConditionsComfort  
Time TempWeatherWind HumidityBarometerVisibility
6:00 AM
Wed, Jul 27
77 °FOvercast.3 mph94%29.71 "Hg1 mi
5:30 AM77 °FMostly cloudy.3 mph94%29.71 "Hg1 mi
4:30 AM77 °FLight rain. Mostly cloudy.6 mph94%29.71 "Hg1 mi
4:00 AM77 °FMostly cloudy.6 mph94%29.71 "Hg1 mi
3:30 AM77 °FMostly cloudy.3 mph94%29.71 "Hg1 mi
2:00 AM77 °FRain. Passing clouds.6 mph94%29.71 "Hg1 mi
1:30 AM77 °FPassing clouds.6 mph94%29.71 "Hg1 mi
12:00 AM79 °FPassing clouds.3 mph89%29.74 "Hg2 mi
11:30 PM
Tue, Jul 26
79 °FPassing clouds.2 mph89%29.74 "Hg2 mi
11:00 PM79 °FOvercast.3 mph89%29.77 "Hg2 mi
10:30 PM79 °FOvercast.3 mph89%29.77 "Hg2 mi
10:00 PM79 °FOvercast.2 mph89%29.74 "Hg2 mi
8:30 PM81 °FThunderstorms. Overcast.8 mph84%29.74 "Hg1 mi
7:00 PM84 °FThundershowers. Broken clouds.9 mph79%29.68 "Hg2 mi
6:30 PM86 °FBroken clouds.10 mph75%29.65 "Hg2 mi
6:00 PM88 °FBroken clouds.6 mph70%29.65 "Hg2 mi
5:30 PM88 °FScattered clouds.2 mph70%29.62 "Hg3 mi
4:30 PM88 °FBroken clouds.3 mph70%29.65 "Hg3 mi
4:00 PM88 °FBroken clouds.5 mph66%29.65 "Hg3 mi
2:30 PM88 °FBroken clouds.3 mph70%29.68 "Hg2 mi
2:00 PM86 °FBroken clouds.5 mph79%29.71 "Hg2 mi
1:00 PM86 °FScattered clouds.10 mph40%29.71 "Hg2 mi
12:30 PM84 °FScattered clouds.9 mph79%N/A2 mi
11:30 AM84 °FScattered clouds.9 mph79%29.77 "Hg2 mi
10:30 AM84 °FScattered clouds.7 mph79%29.77 "Hg2 mi
9:00 AM82 °FScattered clouds.3 mph84%29.74 "Hg2 mi
8:30 AM81 °FScattered clouds.3 mph89%29.74 "Hg2 mi
7:30 AM81 °FBroken clouds.2 mph94%29.74 "Hg1 mi
7:00 AM79 °FBroken clouds.3 mph94%29.74 "Hg1 mi
Weather by CustomWeather, © 2016

See weather overviewHow to use our weather pages